Location: Goettingen
(51.5300°N, 9.9433°E)
Time: 20:57:40
(UTC+01:00)

ISS - Pass Details

Date: 24 January 2022
Orbit: 413 x 422 km, 51.6° (Epoch: 28 January)

Event Time Altitude Azimuth Distance (km) Brightness Sun altitude
Rises 19:50:22 0° 271° (W) 2,349 1.4 -26.9°
Reaches altitude 10° 19:52:28 10° 272° (W) 1,487 0.0 -27.2°
Enters shadow 19:53:48 22° 273° (W) 955 -1.3 -27.4°
